Temperature
17 17 16 16 16 16 16 16 16 15 15 15 15 15 15 15 15 15 15 15 15 14 14 14 14 14 14 14 14 14 14 13 13 12 12 12 12 12 12 11 11 11 11
17 16 16 16 16 16 15 15 15 15 15 15 15 15 15 15 15 15 15 15 14 14 14 14 14 14 14 14 14 13 13 13 13 12 12 12 12 11 11 11 11 11 11
16 16 16 16 16 16 15 15 15 15 15 15 15 15 15 15 15 15 15 14 14 14 14 14 14 14 14 13 13 13 13 13 13 12 12 11 11 11 11 11 11 11 11
16 16 16 16 16 15 15 15 15 15 15 15 15 15 15 15 15 14 14 14 14 14 14 14 14 14 13 13 13 13 13 13 12 12 12 11 11 11 11 11 11 10 10
16 16 16 16 16 15 15 15 15 15 15 15 15 15 15 15 14 14 14 14 14 14 14 13 13 13 13 13 13 13 13 12 12 12 11 11 11 11 10 10 10 10 10
16 16 16 16 15 15 15 15 15 15 15 15 15 15 14 14 14 14 14 14 14 14 14 13 13 13 13 13 13 13 12 12 12 11 11 11 10 10 10 10 10 10 9
16 16 16 15 15 15 15 15 15 15 15 15 15 14 14 14 14 14 14 14 14 14 13 13 13 13 12 12 12 12 12 12 11 11 11 11 10 10 10 10 10 9 9
16 16 15 15 15 15 15 15 15 14 14 14 14 14 14 14 14 14 14 13 13 13 13 13 13 13 12 12 12 12 11 11 11 11 11 10 10 10 10 10 9 9 9
16 15 15 15 15 15 15 15 14 14 14 14 14 14 14 14 13 13 13 13 13 13 13 12 12 12 12 12 12 11 11 11 10 10 10 10 10 10 9 9 9 9 8
16 15 15 15 15 15 15 15 14 14 14 14 14 14 14 13 13 13 13 13 13 12 12 12 12 12 12 12 11 11 11 10 10 10 10 10 9 9 9 9 8 8 8
15 15 15 15 15 15 14 14 14 14 14 14 13 13 13 13 13 13 13 12 12 12 12 12 12 11 11 11 11 11 10 10 10 10 10 9 9 9 8 8 8 8 7
15 15 15 15 15 14 14 14 14 14 13 13 13 13 13 13 13 12 12 12 12 12 12 12 11 11 11 11 11 10 10 10 10 10 9 9 9 8 8 8 8 7 7
15 15 15 14 14 14 14 14 13 13 13 13 13 13 13 12 12 12 12 12 11 11 11 11 11 11 11 10 10 10 10 10 9 9 9 8 8 8 8 8 7 7 7
15 14 14 14 14 14 14 13 13 13 13 13 12 12 12 12 12 12 12 11 11 11 11 11 10 10 10 10 10 10 10 9 9 9 8 8 8 8 7 7 7 7 6
14 14 13 13 13 13 13 13 13 13 13 13 12 12 12 12 12 12 12 11 11 11 11 10 10 10 10 10 9 9 9 9 8 8 8 8 7 7 7 6 6 6 6
13 13 13 13 13 13 13 13 13 12 12 12 12 12 12 12 12 11 11 11 11 11 10 10 10 10 9 9 9 9 8 8 8 7 7 7 7 6 6 6 5 5 5
13 13 13 13 13 13 13 13 12 12 12 12 12 12 12 12 11 11 11 11 10 10 10 10 9 9 9 9 9 8 8 8 7 7 7 7 6 6 5 5 5 5 4
13 13 13 13 13 12 12 12 12 12 12 12 11 11 11 11 11 11 10 10 10 10 10 9 9 9 9 8 8 8 8 7 7 7 6 6 6 5 5 5 4 4 4
13 13 13 12 12 12 12 12 12 11 11 11 11 11 11 10 10 10 10 10 10 10 9 9 9 9 8 8 8 8 7 7 6 6 6 6 5 5 5 4 4 4 4
13 13 12 12 12 11 11 11 11 11 11 11 11 11 10 10 10 10 10 9 9 9 9 9 9 8 8 8 7 7 7 6 6 6 5 5 5 4 4 4 4 3 3
12 12 12 12 11 11 11 11 11 11 11 11 10 10 10 10 10 9 9 9 9 9 9 9 8 8 8 7 7 7 6 6 6 5 5 5 4 4 4 4 3 3 3
12 12 12 11 11 11 11 11 10 10 10 10 10 9 9 9 9 9 9 9 9 8 8 8 8 8 7 7 7 6 6 6 5 5 5 5 4 4 3 3 3 3 2
12 11 11 11 11 11 10 10 10 10 10 10 10 9 9 9 9 9 9 8 8 8 8 8 7 7 7 7 6 6 6 5 5 5 4 4 4 3 3 3 2 2 2
11 11 11 11 10 10 10 10 10 10 10 9 9 9 9 9 8 8 8 8 8 8 7 7 7 7 6 6 6 6 5 5 5 4 4 4 3 3 2 2 2 1 1
11 11 10 10 10 10 10 10 10 9 9 9 9 9 8 8 8 8 8 8 7 7 7 7 7 6 6 6 5 5 5 4 4 4 4 3 3 2 2 2 1 1 1
11 10 10 10 10 10 10 10 9 9 9 9 8 8 8 8 8 8 8 7 7 7 7 6 6 6 6 5 5 5 4 4 4 3 3 3 3 2 2 1 1 1 0
Wind_Speed
7 6 6 6 6 5 4 4 3 3 4 3 3 3 3 4 3 3 2 2 2 2 2 3 3 3 3 3 3 3 3 3 2 2 2 4 5 4 3 3 4 5 4
6 6 6 6 6 5 5 4 4 4 3 4 4 4 3 3 3 3 3 3 3 2 2 3 3 3 3 3 3 3 3 2 2 2 2 3 4 3 2 2 3 3 2
6 7 7 6 6 6 5 4 4 4 4 3 4 4 4 4 3 3 3 3 3 3 3 3 3 4 3 2 3 3 2 3 2 2 2 2 2 3 3 3 3 3 2
6 6 6 6 6 5 4 3 3 4 4 4 4 4 4 3 3 3 3 4 4 4 4 4 4 4 4 4 4 3 3 3 3 3 2 2 2 2 3 2 2 3 2
7 6 6 6 6 5 5 4 3 3 4 4 4 4 4 4 3 3 3 3 4 4 4 4 5 7 8 6 5 5 5 3 2 2 2 2 2 2 2 1 1 2 2
7 7 6 6 6 6 5 4 4 3 3 4 4 5 5 3 5 6 4 3 3 4 4 4 4 5 7 8 9 7 6 4 3 3 2 2 1 1 1 2 1 2 2
7 7 7 7 6 6 5 5 4 4 4 4 5 6 5 5 6 6 5 3 3 3 3 3 3 4 4 3 5 5 5 6 3 3 2 2 1 2 1 2 2 1 1
7 7 7 7 7 6 5 5 4 4 4 4 5 6 5 4 5 5 4 2 3 3 3 3 3 3 3 3 3 3 3 2 2 2 2 1 2 2 2 1 1 2 1
7 7 8 8 7 7 7 6 4 5 4 4 5 5 5 4 5 5 4 2 3 3 3 4 4 4 6 7 4 3 3 2 3 3 3 2 2 5 5 3 3 3 3
7 7 7 7 7 7 7 6 5 5 5 4 4 4 5 4 4 5 4 1 3 3 3 4 5 5 6 6 4 3 2 2 2 2 2 2 2 3 3 1 0 1 2
6 6 6 7 7 7 6 5 6 5 5 5 5 4 4 5 5 5 4 2 2 2 3 2 2 5 5 4 3 2 1 1 1 1 1 2 1 1 2 2 2 0 0
7 6 6 6 6 6 6 5 5 6 6 5 4 4 3 4 5 4 5 3 3 3 2 2 2 4 4 2 2 2 3 3 2 1 1 2 2 2 1 2 3 3 2
7 7 6 6 5 6 7 6 5 5 5 4 4 4 3 3 4 6 6 5 5 3 2 4 3 3 2 1 0 1 2 1 1 1 1 2 1 1 2 3 4 4 5
7 6 6 6 6 6 5 5 5 5 5 5 4 4 4 4 3 3 3 4 4 3 2 3 3 3 1 0 0 0 0 1 0 1 1 2 1 1 1 1 2 3 3
7 6 6 5 5 5 4 3 4 3 5 6 5 5 5 5 5 6 5 4 4 4 3 2 1 1 1 0 0 0 0 0 1 1 1 2 2 2 2 2 2 2 3
6 6 5 5 5 5 6 4 5 3 5 6 6 6 4 6 8 8 6 5 5 5 4 3 2 1 1 1 1 0 0 0 1 1 1 1 2 2 2 2 2 3 4
6 6 5 5 5 6 6 6 5 3 5 5 6 7 7 8 8 8 7 6 5 5 3 3 2 2 1 1 1 1 1 1 1 0 1 1 2 2 2 3 3 3 4
6 6 6 5 5 5 5 5 5 6 4 2 2 5 7 8 8 8 8 6 3 3 2 3 2 2 2 1 1 1 0 0 0 1 1 1 2 2 2 3 3 3 4
5 5 5 5 5 5 5 5 5 6 5 5 4 3 5 6 6 7 7 4 4 3 3 2 2 2 2 1 1 1 1 0 0 0 1 2 2 2 2 3 3 5 4
5 7 6 5 5 5 5 5 5 5 6 5 5 5 5 4 3 4 4 3 3 3 3 2 2 2 1 1 1 1 1 1 0 0 1 1 1 2 3 4 3 4 4
4 6 7 6 5 5 5 5 5 5 5 5 5 6 8 5 5 5 4 3 3 3 3 2 2 2 1 1 1 1 1 1 0 0 0 1 1 2 3 3 4 4 4
4 5 4 4 4 4 5 5 5 5 5 6 5 6 9 5 4 4 4 3 2 2 2 2 2 2 2 1 1 1 1 0 0 0 1 1 2 2 3 3 3 4 4
5 5 5 4 4 5 5 4 4 4 5 5 5 5 5 4 4 4 4 3 3 3 3 3 2 2 2 2 2 2 1 0 0 1 1 1 2 3 3 3 4 5 5
5 5 5 5 4 5 5 4 4 4 5 5 5 5 5 4 4 4 3 3 3 3 4 4 3 3 3 3 3 3 2 2 2 1 1 2 2 2 3 3 4 5 5
5 5 5 5 5 5 5 5 4 4 4 4 4 4 4 4 4 4 3 3 4 3 4 4 3 3 4 4 3 3 2 2 2 1 2 2 2 3 3 4 4 5 6
5 5 5 5 5 5 5 5 5 4 4 4 4 4 4 4 4 4 4 3 3 3 4 4 4 5 4 4 4 3 2 2 1 2 2 2 2 3 3 3 5 5 6
Wind_Direction
169 163 151 147 143 138 138 147 147 149 152 150 144 140 133 130 129 124 127 101 89 106 101 85 64 49 37 30 34 42 38 62 71 9 42 62 73 75 79 85 117 117 106
166 161 154 151 146 145 149 159 159 156 153 153 140 132 130 125 131 140 134 123 103 80 75 81 77 74 54 34 43 45 38 56 85 47 46 48 59 68 68 57 73 89 107
163 157 158 159 153 155 162 167 165 157 149 142 133 135 136 133 129 124 124 125 111 91 76 76 68 76 67 57 66 49 37 49 64 83 60 46 48 47 41 24 33 41 51
157 156 159 155 147 150 146 147 157 146 143 138 131 130 123 117 115 119 123 114 106 92 78 68 59 60 46 47 59 43 51 52 49 70 62 47 44 24 41 16 11 6 8
157 162 161 152 142 139 138 144 141 134 136 130 120 115 105 97 94 101 109 109 112 108 100 90 83 82 72 67 68 45 44 46 45 60 54 46 36 24 6 345 10 346 342
160 161 149 141 135 136 143 143 134 129 124 115 116 109 100 90 83 81 77 82 95 106 113 120 120 100 96 86 81 72 63 59 48 44 46 49 11 354 350 356 9 11 328
162 151 144 144 142 147 147 133 133 134 124 117 118 113 109 96 94 88 76 68 81 86 90 97 93 90 98 120 100 82 60 49 61 95 64 26 9 339 5 357 357 356 290
160 154 154 151 150 146 138 141 151 141 129 126 119 120 117 113 112 103 86 89 91 83 73 79 89 80 48 72 90 83 75 47 61 95 113 77 51 22 28 2 313 334 343
162 161 158 155 153 151 151 157 157 142 136 134 132 131 127 129 132 124 107 109 104 94 78 66 82 87 55 53 62 71 55 33 62 79 96 83 35 16 25 26 9 14 337
164 162 159 154 155 159 162 160 146 141 147 141 134 145 139 135 138 138 136 130 122 112 96 80 73 88 78 65 66 66 54 354 14 33 32 8 12 14 20 55 47 346 328
156 153 153 153 156 158 158 154 149 149 146 144 144 142 139 137 139 140 142 134 135 125 107 92 79 97 96 79 68 63 65 356 351 9 354 351 1 360 6 5 10 129 243
147 148 151 150 155 155 149 151 155 152 151 154 151 146 132 129 133 144 146 135 101 106 111 108 115 124 112 91 68 52 39 26 1 355 357 347 341 332 336 8 1 353 312
146 150 151 151 153 154 155 160 160 156 159 166 163 159 148 138 140 140 145 138 121 117 121 129 149 160 152 147 139 34 31 4 348 339 320 304 298 313 6 5 348 334 320
150 152 153 155 157 157 156 160 162 167 169 171 169 166 160 154 152 153 150 143 137 138 145 149 152 151 150 234 7 36 237 247 242 271 294 308 322 346 343 326 317 320 320
155 153 153 151 153 151 138 138 157 166 175 172 174 172 168 167 171 161 162 167 163 166 158 152 140 121 111 57 349 240 136 22 334 315 328 328 330 334 330 333 326 326 314
159 158 155 152 150 146 137 117 78 106 128 134 137 143 149 158 153 143 142 146 155 163 151 144 150 155 174 194 205 234 212 258 279 292 307 312 317 319 318 324 332 322 308
163 160 156 156 157 157 154 152 144 94 79 103 130 139 144 149 147 148 146 143 148 150 148 162 170 181 201 206 199 188 235 270 280 306 294 307 317 319 322 321 323 322 310
161 161 157 160 162 164 166 166 160 155 150 126 125 148 147 147 149 152 147 133 148 168 168 168 178 189 201 194 187 201 250 309 359 343 324 317 319 320 322 318 313 309 305
161 162 160 160 161 163 165 166 162 158 154 147 137 139 148 144 143 149 151 165 176 178 177 174 182 186 197 187 173 175 187 225 270 325 325 333 335 333 323 318 315 316 314
160 158 159 162 162 163 167 167 164 160 159 160 163 158 153 149 157 167 178 176 174 177 173 173 178 175 178 173 162 161 184 219 222 294 334 337 335 333 317 311 311 313 309
153 155 157 163 168 170 168 167 166 163 164 165 168 167 164 169 175 174 175 177 176 178 173 168 166 168 181 167 159 175 194 224 207 121 346 328 322 315 312 316 318 313 312
155 159 163 160 158 160 161 161 162 162 164 162 153 158 166 168 167 168 172 173 170 156 148 157 169 156 154 147 139 166 192 237 295 357 339 325 316 309 312 313 315 316 310
159 161 158 154 151 150 153 153 152 156 157 157 156 156 165 171 167 165 164 161 154 147 130 126 130 116 105 116 119 107 132 197 -0 1 324 306 302 304 308 308 307 308 309
159 158 155 154 152 156 160 159 158 158 158 157 155 153 158 164 155 151 147 142 141 135 127 124 118 118 102 95 95 98 94 75 65 44 332 307 300 302 305 307 305 305 304
158 157 158 160 162 160 158 157 157 157 155 153 151 149 151 151 147 145 141 137 136 136 134 129 128 124 116 100 97 97 85 70 50 11 335 319 306 304 305 301 300 302 306
158 155 154 153 155 156 156 156 155 150 149 149 149 146 144 144 143 137 131 130 130 128 121 116 119 117 113 111 110 97 76 66 26 347 344 332 314 301 304 300 302 303 305
Height
1537 1539 1541 1543 1545 1547 1549 1551 1552 1554 1555 1556 1557 1558 1559 1560 1561 1561 1562 1562 1563 1564 1564 1564 1564 1564 1564 1564 1564 1564 1563 1563 1561 1561 1559 1556 1555 1555 1555 1555 1555 1554 1553
1535 1537 1540 1542 1544 1546 1548 1550 1551 1553 1554 1556 1557 1558 1559 1559 1560 1561 1561 1562 1563 1563 1563 1564 1564 1563 1563 1563 1563 1563 1563 1562 1561 1560 1559 1558 1556 1556 1556 1555 1555 1554 1553
1533 1536 1538 1540 1542 1544 1546 1548 1550 1552 1553 1555 1556 1557 1558 1559 1560 1560 1561 1562 1562 1563 1563 1563 1563 1563 1563 1563 1563 1563 1562 1562 1561 1560 1559 1558 1557 1557 1556 1555 1555 1553 1552
1531 1534 1536 1539 1541 1543 1545 1547 1549 1551 1552 1554 1555 1556 1557 1558 1559 1560 1560 1561 1562 1562 1562 1563 1563 1562 1562 1562 1562 1562 1562 1561 1560 1560 1559 1558 1557 1557 1556 1555 1553 1553 1552
1529 1532 1534 1537 1540 1542 1544 1546 1548 1550 1551 1553 1554 1555 1556 1557 1558 1559 1560 1560 1561 1561 1561 1562 1562 1562 1562 1562 1562 1561 1561 1561 1560 1559 1559 1558 1557 1556 1555 1554 1553 1552 1550
1528 1530 1533 1535 1538 1540 1542 1544 1546 1548 1550 1551 1553 1554 1555 1556 1557 1558 1559 1560 1560 1560 1560 1561 1561 1561 1561 1561 1561 1561 1561 1560 1560 1559 1558 1558 1557 1556 1555 1553 1552 1550 1549
1526 1528 1531 1533 1536 1538 1541 1543 1544 1546 1548 1550 1551 1552 1554 1555 1556 1557 1558 1559 1559 1560 1560 1560 1560 1560 1560 1561 1560 1560 1560 1559 1559 1559 1558 1557 1556 1555 1554 1552 1551 1550 1548
1524 1526 1529 1531 1534 1536 1539 1541 1543 1545 1547 1548 1550 1551 1552 1554 1555 1556 1557 1558 1558 1558 1559 1559 1559 1559 1559 1560 1559 1559 1559 1559 1558 1558 1557 1557 1556 1555 1553 1552 1550 1549 1547
1522 1524 1526 1529 1531 1534 1536 1538 1541 1543 1545 1547 1548 1550 1551 1552 1554 1555 1556 1556 1557 1557 1558 1558 1558 1558 1558 1559 1558 1558 1558 1558 1558 1557 1557 1556 1555 1553 1552 1550 1549 1547 1545
1519 1522 1525 1527 1529 1532 1534 1536 1539 1541 1543 1545 1546 1548 1549 1551 1552 1553 1554 1555 1555 1556 1556 1557 1557 1557 1557 1557 1557 1557 1556 1556 1556 1556 1555 1554 1553 1552 1550 1549 1547 1546 1544
1517 1520 1522 1525 1527 1530 1532 1534 1537 1539 1541 1542 1544 1546 1548 1549 1550 1551 1552 1553 1554 1554 1555 1555 1556 1556 1556 1556 1556 1555 1555 1555 1555 1554 1553 1552 1551 1550 1549 1548 1546 1545 1543
1515 1518 1520 1522 1525 1528 1530 1532 1534 1536 1538 1540 1542 1544 1545 1547 1548 1549 1550 1551 1552 1553 1553 1554 1554 1554 1554 1554 1554 1554 1554 1553 1553 1552 1551 1550 1549 1548 1547 1546 1544 1543 1541
1512 1515 1517 1520 1522 1525 1527 1529 1532 1534 1536 1538 1540 1541 1543 1544 1546 1547 1548 1549 1550 1551 1552 1552 1552 1553 1553 1553 1553 1552 1552 1551 1551 1550 1549 1548 1547 1546 1544 1543 1541 1540 1538
1510 1513 1515 1517 1520 1522 1525 1527 1529 1531 1533 1535 1537 1538 1540 1541 1543 1544 1545 1546 1548 1549 1549 1550 1550 1551 1551 1551 1551 1550 1550 1549 1549 1548 1547 1546 1545 1543 1542 1540 1538 1537 1535
1508 1510 1513 1515 1517 1519 1522 1524 1526 1529 1531 1532 1534 1535 1537 1538 1539 1541 1542 1543 1545 1546 1547 1548 1548 1548 1548 1548 1548 1548 1548 1547 1546 1545 1544 1543 1542 1540 1539 1537 1536 1533 1531
1505 1508 1510 1512 1515 1517 1519 1521 1524 1526 1528 1530 1532 1533 1534 1536 1537 1539 1540 1542 1543 1544 1545 1545 1545 1546 1546 1546 1546 1545 1545 1544 1544 1543 1542 1540 1539 1537 1536 1534 1532 1530 1528
1503 1505 1507 1509 1512 1514 1516 1518 1520 1523 1525 1527 1529 1531 1532 1533 1534 1536 1537 1539 1540 1541 1542 1542 1543 1543 1543 1543 1543 1543 1542 1542 1541 1540 1539 1538 1536 1535 1533 1531 1529 1527 1525
1501 1503 1505 1507 1509 1511 1513 1515 1517 1519 1521 1523 1526 1527 1529 1530 1532 1533 1535 1536 1537 1538 1539 1539 1540 1540 1541 1541 1540 1540 1539 1539 1538 1537 1536 1535 1533 1532 1530 1528 1526 1524 1522
1498 1500 1502 1504 1506 1508 1510 1512 1514 1516 1518 1520 1522 1524 1526 1527 1529 1531 1532 1533 1533 1534 1535 1536 1537 1537 1538 1538 1537 1537 1536 1536 1535 1534 1533 1532 1530 1529 1527 1525 1523 1521 1519
1496 1498 1500 1502 1503 1505 1508 1509 1511 1513 1515 1517 1519 1520 1522 1524 1525 1527 1528 1529 1530 1531 1532 1533 1533 1534 1534 1534 1534 1534 1533 1532 1532 1531 1530 1529 1527 1525 1524 1522 1520 1517 1515
1493 1495 1497 1499 1501 1503 1505 1507 1508 1510 1512 1514 1516 1518 1519 1521 1522 1524 1525 1526 1527 1528 1528 1529 1530 1530 1531 1531 1531 1530 1530 1529 1528 1527 1526 1525 1523 1522 1520 1518 1516 1514 1512
1491 1493 1495 1496 1498 1500 1502 1504 1506 1507 1509 1511 1513 1515 1517 1518 1520 1521 1522 1523 1524 1525 1525 1526 1526 1527 1527 1527 1527 1526 1526 1525 1524 1523 1522 1521 1519 1518 1516 1514 1512 1510 1508
1488 1490 1492 1494 1496 1498 1499 1501 1503 1505 1506 1508 1510 1512 1514 1515 1517 1518 1519 1520 1521 1521 1522 1522 1523 1523 1523 1523 1523 1523 1522 1521 1521 1519 1518 1517 1515 1513 1512 1510 1508 1506 1504
1485 1487 1489 1491 1493 1495 1496 1498 1500 1502 1504 1506 1507 1509 1511 1512 1514 1515 1516 1517 1518 1518 1519 1519 1519 1519 1519 1519 1519 1518 1518 1517 1517 1516 1515 1513 1511 1510 1508 1506 1505 1503 1501
1482 1484 1486 1488 1490 1492 1494 1496 1498 1500 1502 1503 1505 1506 1508 1510 1511 1512 1513 1514 1514 1515 1515 1516 1516 1516 1516 1515 1515 1515 1514 1514 1513 1512 1511 1509 1508 1506 1504 1503 1501 1499 1497
1479 1481 1483 1485 1487 1489 1491 1493 1495 1497 1499 1500 1502 1503 1505 1506 1507 1509 1510 1511 1511 1511 1512 1512 1512 1512 1512 1512 1511 1511 1510 1510 1509 1508 1507 1505 1504 1502 1500 1499 1497 1495 1493